[[{"header":{"parameterUnit":"m.s-1","parameterCategory":1,"la1":30.2991,"la2":30.254,"lo1":-89.0895,"lo2":-89.0444,"dy":0.0017,"dx":0.0017,"nx":28,"ny":28,"refTime":"2025-02-04T09:00:00:Z","depth":0,"parameterNumber":2,"parameterNumberName":"U-component_of_WINDS"},"data":[0,0,0,0,0,0,0,0,0,0,0,0,0,0,0,0,0,0,0,0,0,0,0,0,0,0,0,0,0,0,0,0,0,0,0,0,0,0,0,0,0,0,0,0,0,0,0,0,0,0,0,0,0,0,0,0,0,0,0.1809,0.181,0,0.1866,0.1866,0.1867,0.1873,0.1872,0.1871,0.1871,0.1927,0.1929,0.1931,0,0,0,0,0,0,0,0,0,0,0,0,0,0.1705,0.1706,0.1809,0.181,0.181,0.1865,0.1866,0.1867,0.1873,0.1872,0.1871,0.1871,0.1926,0.1929,0.1931,0,0,0,0,0,0,0,0,0,0,0,0,0,0.1754,0.1707,0.1809,0.182,0.1821,0.1865,0.1866,0.1867,0.1873,0.1872,0.1871,0.187,0.1926,0.1929,0.1932,0.1968,0,0,0.1941,0.1942,0,0,0,0,0,0,0,0,0.1751,0.1758,0.1818,0.1819,0.1821,0.1861,0.185,0.1901,0.1873,0.1853,0.1871,0.187,0.1906,0.191,0.1923,0.197,0.1973,0.1941,0.1943,0.1944,0.1945,0,0,0,0,0,0,0,0.1748,0.1756,0.1831,0.1818,0.1821,0.1822,0.1828,0.186,0.1884,0.1855,0.1855,0.1862,0.1906,0.192,0.1924,0.1974,0.1941,0.1944,0.1946,0.1947,0.2054,0.2055,0,0,0,0,0,0,0.1743,0.1753,0.183,0.1833,0.1783,0.1824,0.1831,0.1849,0.1883,0.1888,0.1863,0.1862,0.1915,0.1921,0.1926,0.1971,0.1944,0.1947,0.1949,0.2053,0.2054,0.2055,0,0,0,0,0,0,0.174,0.175,0.1827,0.1793,0.1803,0.1827,0.1847,0.1851,0.1864,0.1889,0.1893,0.1872,0.1915,0.1922,0.1958,0.1973,0.1948,0.1951,0.2052,0.2053,0.2055,0.2061,0,0,0,0,0,0,0.1737,0.1749,0.1763,0.1793,0.1805,0.1858,0.1848,0.1852,0.187,0.1869,0.1899,0.1903,0.1914,0.1953,0.1961,0.1977,0.1954,0.205,0.2052,0.2054,0.206,0.2063,0.2065,0,0,0,0,0,0.1734,0.1762,0.1764,0.1773,0.1823,0.1859,0.1866,0.1878,0.1871,0.1885,0.1901,0.1902,0.197,0.1957,0.1965,0.1983,0.2049,0.2052,0.2054,0.2059,0.2062,0.2065,0,0,0,0,0,0,0.1732,0.1766,0.1768,0.1808,0.1831,0.186,0.1879,0.1882,0.1907,0.1906,0.192,0.1926,0.1962,0.1976,0.196,0.202,0.2009,0.2013,0.2009,0.2013,0.2016,0.2012,0.1956,0,0,0,0,0,0.1737,0.1763,0.1791,0.1823,0.1835,0.1855,0.1871,0.1879,0.1903,0.1912,0.1931,0.1954,0.198,0.1997,0.2023,0.2062,0.2068,0.2078,0.2081,0.2083,0.2086,0.2108,0.2113,0.2063,0.2063,0.2063,0,0,0.1746,0.1768,0.1784,0.1824,0.1842,0.1869,0.1863,0.1891,0.1912,0.1916,0.1952,0.1966,0.1992,0.203,0.2047,0.2043,0.2102,0.2086,0.2087,0.209,0.2111,0.2116,0.212,0.2064,0.2064,0.2064,0,0,0.1776,0.1796,0.1825,0.1844,0.1872,0.1885,0.1892,0.1921,0.1931,0.1967,0.1971,0.1995,0.204,0.2059,0.2074,0.2112,0.2114,0.212,0.2135,0.2156,0.216,0.2164,0.2178,0.2183,0.2123,0.2123,0.2123,0,0.1784,0.1826,0.1839,0.1868,0.1885,0.1891,0.1921,0.1938,0.1973,0.1985,0.1979,0.2037,0.2055,0.2097,0.2106,0.2118,0.2127,0.2117,0.2159,0.2162,0.2166,0.218,0.2185,0.2124,0.2124,0.2124,0.2124,0,0.1834,0.1862,0.1882,0.1917,0.1937,0.1965,0.1983,0.2001,0.2007,0.2021,0.2057,0.2079,0.2109,0.212,0.2126,0.2163,0.2159,0.2156,0.2146,0.2171,0.2184,0.2189,0.2125,0.2125,0.2124,0.2124,0,0,0.1866,0.1908,0.1915,0.1931,0.1963,0.1985,0.2014,0.2044,0.206,0.2083,0.2108,0.2146,0.2144,0.2161,0.2169,0.2188,0.2217,0.2182,0.2183,0.2189,0.226,0.2263,0.2269,0.2218,0.2219,0.222,0.2258,0,0.19,0.1953,0.1966,0.2011,0.2038,0.2044,0.2069,0.2091,0.2104,0.2129,0.2143,0.217,0.2164,0.2175,0.2194,0.221,0.2232,0.2207,0.2241,0.2242,0.2235,0.2275,0.2278,0.2313,0.2263,0.2264,0.2264,0,0.1948,0.1974,0.2022,0.2051,0.2062,0.2085,0.2114,0.2137,0.2162,0.2171,0.219,0.2197,0.2227,0.2214,0.2256,0.2239,0.2254,0.2264,0.2265,0.227,0.2256,0.2281,0.2324,0.233,0.2272,0.2272,0.2271,0,0.1968,0.2014,0.2049,0.2062,0.2097,0.2112,0.2127,0.2152,0.2169,0.2194,0.2206,0.2234,0.2249,0.2271,0.2284,0.2274,0.2325,0.2313,0.2333,0.2332,0.2344,0.2343,0.2391,0.2352,0.2352,0.2352,0.2352,0,0.2006,0.2035,0.2058,0.208,0.2113,0.2127,0.2158,0.2173,0.2195,0.2219,0.2225,0.2248,0.2264,0.2289,0.2299,0.2332,0.2339,0.2347,0.2349,0.2347,0.2346,0.2357,0.2355,0.2353,0.2353,0.2353,0.2352,0,0.2033,0.205,0.2088,0.2118,0.2126,0.2149,0.2174,0.2195,0.2208,0.2239,0.2247,0.2268,0.2297,0.2312,0.2348,0.2356,0.2393,0.2394,0.2385,0.2386,0.2405,0.2403,0.2462,0.2471,0.2426,0.2426,0.2426,0,0.2057,0.2079,0.2111,0.2128,0.2144,0.2171,0.2189,0.2204,0.2222,0.2253,0.227,0.23,0.2324,0.2371,0.2389,0.2417,0.2419,0.2437,0.2423,0.242,0.242,0.2419,0.2421,0.244,0.244,0.2441,0.2441,0,0.2097,0.2104,0.213,0.216,0.2182,0.2205,0.2228,0.2242,0.226,0.228,0.2311,0.233,0.2367,0.2397,0.2426,0.2441,0.2444,0.2445,0.2451,0.2449,0.2444,0.2448,0.2393,0.2444,0.2444,0.2444,0.2443,0.2443,0.2124,0.2144,0.217,0.2199,0.2219,0.224,0.2262,0.2278,0.2304,0.2336,0.2342,0.2375,0.2399,0.2439,0.2455,0.248,0.2476,0.2484,0.2487,0.2489,0.249,0.2439,0.2485,0.2485,0.2485,0.2485,0.2485,0,0.2165,0.2182,0.2209,0.2241,0.2264,0.2265,0.2291,0.231,0.2339,0.2361,0.2386,0.2421,0.2449,0.247,0.2499,0.2515,0.2517,0.2522,0.2522,0.2525,0.2491,0.2484,0.252,0.252,0.252,0.252,0.252,0.252,0.2189,0.2224,0.2235,0.2279,0.2296,0.2328,0.2343,0.2363,0.2381,0.242,0.2444,0.2458,0.248,0.251,0.2537,0.2542,0.2553,0.2558,0.2563,0.2531,0.2527,0.2524,0.2517,0.256,0.256,0.2595,0.2595,0.2595]},{"header":{"parameterUnit":"m.s-1","parameterCategory":1,"la1":30.2991,"la2":30.254,"lo1":-89.0895,"lo2":-89.0444,"dy":0.0017,"dx":0.0017,"nx":28,"ny":28,"refTime":"2025-02-04T09:00:00:Z","depth":0,"parameterNumber":3,"parameterNumberName":"V-component_of_WINDS"},"data":[0,0,0,0,0,0,0,0,0,0,0,0,0,0,0,0,0,0,0,0,0,0,0,0,0,0,0,0,0,0,0,0,0,0,0,0,0,0,0,0,0,0,0,0,0,0,0,0,0,0,0,0,0,0,0,0,0,0,0.2681,0.2681,0,0.2675,0.2675,0.2675,0.2646,0.2645,0.2644,0.2644,0.2637,0.2637,0.2638,0,0,0,0,0,0,0,0,0,0,0,0,0,0.2669,0.2669,0.2682,0.2681,0.2681,0.2675,0.2675,0.2675,0.2646,0.2645,0.2644,0.2643,0.2637,0.2637,0.2638,0,0,0,0,0,0,0,0,0,0,0,0,0,0.2669,0.2669,0.2682,0.2666,0.2665,0.2675,0.2675,0.2675,0.2646,0.2645,0.2644,0.2643,0.2637,0.2637,0.2638,0.2663,0,0,0.264,0.264,0,0,0,0,0,0,0,0,0.2669,0.267,0.2668,0.2667,0.2666,0.266,0.2668,0.2671,0.2646,0.2653,0.2644,0.2642,0.2646,0.2645,0.2646,0.2662,0.2662,0.264,0.2641,0.2641,0.2641,0,0,0,0,0,0,0,0.2669,0.267,0.2679,0.2668,0.2667,0.2659,0.2658,0.2668,0.2655,0.2652,0.265,0.265,0.2645,0.2646,0.2646,0.2662,0.264,0.2641,0.2641,0.2642,0.2697,0.2698,0,0,0,0,0,0,0.2671,0.267,0.2679,0.2679,0.2665,0.266,0.2659,0.2663,0.2655,0.2653,0.2651,0.2648,0.2645,0.2645,0.2646,0.2674,0.2641,0.2642,0.2642,0.2696,0.2697,0.2699,0,0,0,0,0,0,0.2671,0.2673,0.2679,0.2674,0.2674,0.2662,0.2666,0.2663,0.2664,0.2654,0.2651,0.2654,0.2644,0.2645,0.2659,0.2673,0.2642,0.2643,0.2695,0.2696,0.2698,0.2731,0,0,0,0,0,0,0.2671,0.2673,0.2682,0.2674,0.2674,0.2693,0.2667,0.2664,0.2666,0.2663,0.2657,0.2655,0.2644,0.2658,0.2659,0.2674,0.2643,0.2693,0.2696,0.2697,0.2728,0.2733,0.2737,0,0,0,0,0,0.2671,0.2692,0.2683,0.2684,0.2686,0.2694,0.2694,0.2681,0.2667,0.2676,0.2669,0.2655,0.2671,0.2659,0.2661,0.2676,0.2693,0.2695,0.2697,0.2726,0.2732,0.2737,0,0,0,0,0,0,0.2703,0.2691,0.268,0.27,0.2698,0.2689,0.27,0.2688,0.269,0.2687,0.267,0.2669,0.2685,0.2682,0.2669,0.2699,0.2679,0.2682,0.2701,0.2706,0.2711,0.2712,0.2644,0,0,0,0,0,0.2712,0.2719,0.2708,0.2726,0.2725,0.2713,0.2716,0.2706,0.2703,0.2702,0.2696,0.2694,0.2699,0.2702,0.2706,0.2727,0.2725,0.2738,0.2743,0.2746,0.2749,0.276,0.2765,0.2706,0.2706,0.2706,0,0,0.2731,0.2725,0.2731,0.2732,0.2729,0.2737,0.2713,0.2722,0.2727,0.2704,0.2716,0.2712,0.2708,0.2726,0.2733,0.2723,0.2765,0.2749,0.2753,0.2753,0.2763,0.2769,0.2774,0.2708,0.2708,0.2707,0,0,0.277,0.2766,0.2781,0.2778,0.2774,0.2766,0.2769,0.2761,0.2757,0.277,0.2752,0.2758,0.2766,0.2764,0.2765,0.2801,0.2788,0.2803,0.2827,0.2838,0.2843,0.2847,0.286,0.2865,0.2806,0.2806,0.2806,0,0.2795,0.2805,0.279,0.28,0.2801,0.2779,0.2794,0.2792,0.2789,0.2791,0.2779,0.2789,0.2785,0.2802,0.281,0.2811,0.2815,0.2804,0.2843,0.2847,0.2851,0.2863,0.2868,0.2808,0.2807,0.2807,0.2807,0,0.2836,0.2843,0.2855,0.2853,0.2855,0.2867,0.2854,0.2857,0.2847,0.2839,0.2852,0.2846,0.2848,0.2851,0.2841,0.2866,0.286,0.2846,0.2826,0.2858,0.287,0.2874,0.281,0.281,0.2809,0.2809,0,0,0.2896,0.2884,0.2889,0.2887,0.2881,0.2886,0.2897,0.2898,0.2902,0.29,0.2909,0.2916,0.2903,0.2903,0.2892,0.2901,0.2931,0.2886,0.2886,0.2895,0.2958,0.2969,0.2975,0.2921,0.2922,0.2923,0.2959,0,0.2934,0.2952,0.2938,0.2958,0.2965,0.2943,0.2953,0.2949,0.2942,0.2946,0.2938,0.2944,0.2926,0.2926,0.2934,0.2926,0.2943,0.2923,0.293,0.293,0.2932,0.2981,0.2993,0.3027,0.2963,0.2964,0.2964,0,0.2981,0.2981,0.3002,0.2993,0.2995,0.3004,0.3004,0.3008,0.3003,0.2997,0.2997,0.2983,0.2993,0.2973,0.2985,0.2972,0.2973,0.297,0.2971,0.2972,0.295,0.2984,0.3037,0.3043,0.2971,0.297,0.297,0,0.3023,0.3028,0.3042,0.3041,0.3031,0.3037,0.3033,0.3027,0.3029,0.3029,0.3029,0.303,0.3031,0.3032,0.3018,0.3005,0.3033,0.3012,0.3028,0.3029,0.3036,0.3036,0.3092,0.3036,0.3036,0.3036,0.3036,0,0.3067,0.3081,0.3061,0.3069,0.3083,0.3066,0.3081,0.3075,0.307,0.3076,0.3057,0.3064,0.3045,0.305,0.3039,0.3052,0.3052,0.3047,0.3045,0.305,0.305,0.3051,0.3049,0.3037,0.3037,0.3037,0.3036,0,0.3118,0.3105,0.3118,0.3106,0.3104,0.3115,0.3105,0.3112,0.3103,0.3111,0.3112,0.3098,0.3102,0.3088,0.309,0.3083,0.3101,0.3094,0.3103,0.3101,0.3119,0.3118,0.3178,0.3185,0.3124,0.3125,0.3125,0,0.3148,0.3158,0.3147,0.315,0.3147,0.3151,0.3153,0.3136,0.3138,0.3132,0.314,0.3142,0.3143,0.3151,0.3141,0.3142,0.3135,0.3156,0.3135,0.314,0.3136,0.3136,0.3137,0.3161,0.3161,0.3162,0.3162,0,0.3202,0.3194,0.3196,0.3196,0.3198,0.3197,0.3195,0.3198,0.318,0.3183,0.3187,0.3187,0.3189,0.3191,0.319,0.3186,0.3171,0.3169,0.3173,0.3179,0.3183,0.3181,0.3116,0.3168,0.3167,0.3167,0.3167,0.3166,0.3243,0.3251,0.3244,0.3247,0.3243,0.3242,0.3247,0.3238,0.3241,0.3241,0.323,0.3236,0.323,0.3227,0.3224,0.3228,0.3218,0.3224,0.3225,0.3227,0.3231,0.3182,0.3227,0.3227,0.3227,0.3227,0.3227,0,0.3296,0.3291,0.3294,0.3291,0.3293,0.3278,0.3274,0.3277,0.3282,0.3278,0.3279,0.3283,0.3285,0.3274,0.3275,0.328,0.3273,0.3281,0.3281,0.328,0.3239,0.3236,0.3286,0.3286,0.3286,0.3286,0.3286,0.3286,0.3325,0.3337,0.3328,0.3338,0.3332,0.3338,0.3337,0.3335,0.3331,0.3336,0.3337,0.333,0.3323,0.3323,0.3324,0.332,0.3322,0.3332,0.3326,0.3289,0.3283,0.3277,0.3274,0.3332,0.3332,0.3367,0.3367,0.3367]}]]